[[{"header":{"parameterUnit":"m.s-1","parameterCategory":1,"la1":30.2991,"la2":30.254,"lo1":-89.0895,"lo2":-89.0444,"dy":0.0017,"dx":0.0017,"nx":28,"ny":28,"refTime":"2024-02-17T03:00:00:Z","depth":0,"parameterNumber":2,"parameterNumberName":"U-component_of_WINDS"},"data":[0,0,0,0,0,0,0,0,0,0,0,0,0,0,0,0,0,0,0,0,0,0,0,0,0,0,0,0,0,0,0,0,0,0,0,0,0,0,0,0,0,0,0,0,0,0,0,0,0,0,0,0,0,0,0,0,0,0,-1.066,-1.066,0,-1.0605,-1.0604,-1.0604,-1.0536,-1.0535,-1.0534,-1.0533,-1.0478,-1.0478,-1.0477,0,0,0,0,0,0,0,0,0,0,0,0,0,-1.0709,-1.0708,-1.066,-1.066,-1.0659,-1.0605,-1.0604,-1.0603,-1.0536,-1.0535,-1.0533,-1.0532,-1.0478,-1.0478,-1.0477,0,0,0,0,0,0,0,0,0,0,0,0,0,-1.0674,-1.0708,-1.0661,-1.0619,-1.0614,-1.0605,-1.0604,-1.0603,-1.0536,-1.0535,-1.0533,-1.0532,-1.0478,-1.0478,-1.0477,-1.0505,0,0,-1.0475,-1.0475,0,0,0,0,0,0,0,0,-1.0676,-1.0672,-1.0626,-1.0622,-1.0617,-1.0576,-1.0601,-1.057,-1.0537,-1.0566,-1.0533,-1.0531,-1.0512,-1.0508,-1.0502,-1.0502,-1.05,-1.0475,-1.0475,-1.0474,-1.0474,0,0,0,0,0,0,0,-1.0679,-1.0674,-1.0638,-1.0625,-1.062,-1.0603,-1.0596,-1.0595,-1.0549,-1.0563,-1.0558,-1.0553,-1.0509,-1.0502,-1.05,-1.0499,-1.0475,-1.0474,-1.0474,-1.0474,-1.0519,-1.052,0,0,0,0,0,0,-1.0687,-1.0677,-1.064,-1.0637,-1.0643,-1.0604,-1.0596,-1.0591,-1.0549,-1.0541,-1.0554,-1.055,-1.0504,-1.0501,-1.0498,-1.0527,-1.0474,-1.0474,-1.0473,-1.0517,-1.0519,-1.0521,0,0,0,0,0,0,-1.0688,-1.0685,-1.0642,-1.0655,-1.0649,-1.0604,-1.0599,-1.059,-1.0583,-1.0541,-1.0533,-1.0556,-1.0503,-1.0499,-1.0503,-1.0524,-1.0473,-1.0473,-1.0515,-1.0518,-1.052,-1.0587,0,0,0,0,0,0,-1.069,-1.0685,-1.0695,-1.0656,-1.0648,-1.0649,-1.06,-1.059,-1.0582,-1.0576,-1.0541,-1.0533,-1.0501,-1.0505,-1.0503,-1.0522,-1.0472,-1.0513,-1.0517,-1.0519,-1.0582,-1.0591,-1.0598,0,0,0,0,0,-1.0692,-1.0717,-1.0696,-1.0692,-1.066,-1.065,-1.0646,-1.0608,-1.0584,-1.0594,-1.0567,-1.0534,-1.0522,-1.0506,-1.0503,-1.0523,-1.0512,-1.0516,-1.0519,-1.0579,-1.0589,-1.0598,0,0,0,0,0,0,-1.0761,-1.0711,-1.0688,-1.0701,-1.068,-1.0639,-1.065,-1.0621,-1.0607,-1.0602,-1.0556,-1.0549,-1.0559,-1.0541,-1.0524,-1.0547,-1.0512,-1.0515,-1.0559,-1.0568,-1.0576,-1.0581,-1.0472,0,0,0,0,0,-1.0778,-1.0774,-1.073,-1.0746,-1.0737,-1.0695,-1.069,-1.0662,-1.064,-1.0631,-1.0604,-1.0584,-1.0575,-1.057,-1.056,-1.0579,-1.057,-1.0591,-1.0599,-1.0606,-1.061,-1.0618,-1.0626,-1.0533,-1.0533,-1.0533,0,0,-1.0813,-1.0785,-1.0785,-1.0759,-1.074,-1.0737,-1.0689,-1.0688,-1.0685,-1.0631,-1.0633,-1.0613,-1.0587,-1.0599,-1.0603,-1.0584,-1.0633,-1.0611,-1.0616,-1.0616,-1.0622,-1.0631,-1.0639,-1.0535,-1.0535,-1.0535,0,0,-1.0874,-1.0853,-1.0863,-1.0844,-1.0815,-1.0787,-1.079,-1.0753,-1.0737,-1.0738,-1.0697,-1.0693,-1.068,-1.0663,-1.0652,-1.0706,-1.0675,-1.0703,-1.0746,-1.0754,-1.0762,-1.0768,-1.0787,-1.0794,-1.0707,-1.0707,-1.0707,0,-1.0921,-1.0915,-1.0872,-1.0873,-1.0863,-1.0812,-1.0822,-1.0807,-1.0776,-1.0771,-1.075,-1.0731,-1.071,-1.0717,-1.0729,-1.0723,-1.0724,-1.0708,-1.0764,-1.077,-1.0775,-1.0793,-1.08,-1.0711,-1.071,-1.071,-1.071,0,-1.0974,-1.097,-1.0982,-1.0953,-1.0943,-1.0949,-1.0908,-1.0904,-1.0876,-1.0851,-1.0853,-1.0825,-1.0808,-1.0807,-1.0781,-1.081,-1.08,-1.0772,-1.0736,-1.0788,-1.0804,-1.0811,-1.0716,-1.0715,-1.0714,-1.0713,0,0,-1.1079,-1.1025,-1.103,-1.1016,-1.098,-1.0976,-1.0979,-1.0961,-1.0959,-1.0939,-1.0941,-1.0929,-1.0903,-1.0891,-1.0863,-1.087,-1.0914,-1.0841,-1.084,-1.0856,-1.0944,-1.0965,-1.0974,-1.0893,-1.0894,-1.0895,-1.0946,0,-1.1135,-1.1137,-1.1098,-1.1111,-1.1106,-1.1057,-1.106,-1.1038,-1.1013,-1.1006,-1.0979,-1.0972,-1.0938,-1.093,-1.0935,-1.0908,-1.0931,-1.0903,-1.0894,-1.0895,-1.0903,-1.0982,-1.1005,-1.1055,-1.0952,-1.0953,-1.0953,0,-1.12,-1.1183,-1.1196,-1.1157,-1.1154,-1.1157,-1.1137,-1.1131,-1.1105,-1.1086,-1.1072,-1.1039,-1.1039,-1.1005,-1.1004,-1.0987,-1.098,-1.0966,-1.0967,-1.0965,-1.0928,-1.0983,-1.1069,-1.1077,-1.0963,-1.0962,-1.0961,0,-1.1276,-1.1256,-1.1261,-1.125,-1.1206,-1.1209,-1.1191,-1.1163,-1.1154,-1.1137,-1.1131,-1.1114,-1.1105,-1.1093,-1.1056,-1.1034,-1.106,-1.1022,-1.1045,-1.1046,-1.1054,-1.1054,-1.1141,-1.1049,-1.1049,-1.1049,-1.1049,0,-1.1343,-1.1353,-1.1294,-1.1297,-1.1306,-1.1261,-1.1271,-1.1248,-1.1223,-1.1221,-1.1177,-1.1176,-1.1127,-1.112,-1.1091,-1.1095,-1.1091,-1.1076,-1.1069,-1.1081,-1.1083,-1.1077,-1.1073,-1.1051,-1.105,-1.105,-1.105,0,-1.143,-1.1392,-1.1393,-1.135,-1.134,-1.1348,-1.1312,-1.1313,-1.1284,-1.1282,-1.1279,-1.1235,-1.1225,-1.1186,-1.1166,-1.1147,-1.116,-1.1145,-1.1169,-1.1164,-1.1189,-1.1188,-1.1276,-1.1286,-1.1188,-1.1189,-1.1189,0,-1.1476,-1.1482,-1.1439,-1.1434,-1.1417,-1.141,-1.14,-1.1355,-1.1347,-1.1317,-1.1322,-1.1307,-1.1294,-1.1279,-1.1246,-1.1231,-1.1215,-1.1247,-1.1212,-1.1224,-1.1216,-1.1216,-1.1216,-1.1255,-1.1256,-1.1257,-1.1258,0,-1.1561,-1.1541,-1.1529,-1.151,-1.1499,-1.1482,-1.1463,-1.1461,-1.1411,-1.1405,-1.1393,-1.1382,-1.1361,-1.1347,-1.1326,-1.1307,-1.1275,-1.1269,-1.1273,-1.1286,-1.13,-1.1293,-1.119,-1.1267,-1.1266,-1.1266,-1.1265,-1.1265,-1.1629,-1.1631,-1.1601,-1.1589,-1.1569,-1.1552,-1.155,-1.1521,-1.151,-1.1489,-1.1463,-1.1455,-1.1427,-1.1395,-1.1378,-1.1371,-1.1353,-1.136,-1.1361,-1.1364,-1.137,-1.13,-1.1367,-1.1366,-1.1366,-1.1366,-1.1366,0,-1.1712,-1.1689,-1.1678,-1.1652,-1.1642,-1.161,-1.1587,-1.1581,-1.1573,-1.155,-1.1537,-1.1523,-1.1509,-1.1474,-1.1457,-1.1457,-1.1442,-1.1454,-1.1454,-1.145,-1.1387,-1.1385,-1.1467,-1.1467,-1.1467,-1.1467,-1.1467,-1.1467,-1.1754,-1.1756,-1.1733,-1.1725,-1.1702,-1.1693,-1.1682,-1.1666,-1.1646,-1.1632,-1.162,-1.1597,-1.1569,-1.1549,-1.1535,-1.1524,-1.152,-1.1538,-1.1523,-1.1465,-1.1455,-1.1446,-1.1444,-1.1537,-1.1538,-1.1588,-1.1588,-1.1589]},{"header":{"parameterUnit":"m.s-1","parameterCategory":1,"la1":30.2991,"la2":30.254,"lo1":-89.0895,"lo2":-89.0444,"dy":0.0017,"dx":0.0017,"nx":28,"ny":28,"refTime":"2024-02-17T03:00:00:Z","depth":0,"parameterNumber":3,"parameterNumberName":"V-component_of_WINDS"},"data":[0,0,0,0,0,0,0,0,0,0,0,0,0,0,0,0,0,0,0,0,0,0,0,0,0,0,0,0,0,0,0,0,0,0,0,0,0,0,0,0,0,0,0,0,0,0,0,0,0,0,0,0,0,0,0,0,0,0,-7.5954,-7.5955,0,-7.6098,-7.6099,-7.6101,-7.603,-7.6026,-7.6022,-7.6019,-7.616,-7.6167,-7.6174,0,0,0,0,0,0,0,0,0,0,0,0,0,-7.561,-7.5617,-7.5953,-7.5955,-7.5957,-7.6097,-7.6099,-7.6101,-7.603,-7.6026,-7.6021,-7.6017,-7.6158,-7.6166,-7.6175,0,0,0,0,0,0,0,0,0,0,0,0,0,-7.5757,-7.5619,-7.5953,-7.5939,-7.5939,-7.6097,-7.6099,-7.6102,-7.6031,-7.6026,-7.602,-7.6015,-7.6155,-7.6166,-7.6176,-7.6355,0,0,-7.6209,-7.6214,0,0,0,0,0,0,0,0,-7.5749,-7.577,-7.5939,-7.594,-7.5941,-7.604,-7.603,-7.6186,-7.6033,-7.5996,-7.6019,-7.6012,-7.6124,-7.6137,-7.6176,-7.6361,-7.6367,-7.621,-7.6217,-7.6222,-7.6225,0,0,0,0,0,0,0,-7.5739,-7.5763,-7.601,-7.5942,-7.5943,-7.5923,-7.5938,-7.6059,-7.609,-7.5999,-7.5994,-7.6013,-7.6124,-7.6166,-7.6179,-7.637,-7.621,-7.622,-7.6226,-7.6231,-7.6707,-7.6713,0,0,0,0,0,0,-7.573,-7.5755,-7.6006,-7.6015,-7.5829,-7.5934,-7.595,-7.6014,-7.6088,-7.6094,-7.6017,-7.6009,-7.615,-7.6167,-7.6184,-7.6398,-7.6221,-7.6232,-7.6238,-7.6701,-7.6709,-7.6715,0,0,0,0,0,0,-7.5723,-7.5753,-7.6,-7.5884,-7.5914,-7.5946,-7.6018,-7.602,-7.6062,-7.6102,-7.6106,-7.6056,-7.6147,-7.6169,-7.6313,-7.6402,-7.6237,-7.6246,-7.6694,-7.6703,-7.6712,-7.6827,0,0,0,0,0,0,-7.5713,-7.5751,-7.5821,-7.5886,-7.592,-7.6129,-7.6023,-7.6026,-7.6082,-7.6072,-7.6139,-7.6145,-7.6144,-7.6297,-7.6324,-7.6414,-7.6255,-7.6686,-7.6698,-7.6709,-7.6816,-7.6839,-7.686,0,0,0,0,0,-7.5701,-7.5846,-7.5825,-7.5855,-7.6009,-7.6134,-7.6154,-7.6152,-7.6089,-7.6159,-7.6184,-7.6143,-7.6388,-7.6313,-7.6342,-7.6436,-7.668,-7.6695,-7.6708,-7.6806,-7.6835,-7.6859,0,0,0,0,0,0,-7.5789,-7.5855,-7.5831,-7.6002,-7.6064,-7.6122,-7.621,-7.6182,-7.6261,-7.6248,-7.624,-7.6256,-7.6406,-7.6435,-7.6351,-7.6613,-7.6524,-7.6544,-7.6588,-7.6616,-7.6638,-7.6627,-7.6264,0,0,0,0,0,-7.5828,-7.5927,-7.5978,-7.6124,-7.6156,-7.6178,-7.6233,-7.6226,-7.6288,-7.6313,-7.6349,-7.6409,-7.6499,-7.6559,-7.6644,-7.6819,-7.6832,-7.6898,-7.692,-7.6938,-7.6956,-7.705,-7.7079,-7.6761,-7.6761,-7.676,0,0,-7.591,-7.5958,-7.6021,-7.6143,-7.6189,-7.629,-7.62,-7.631,-7.6384,-7.6329,-7.6469,-7.6497,-7.6563,-7.6724,-7.6796,-7.6753,-7.7047,-7.6956,-7.697,-7.6978,-7.7067,-7.7097,-7.7124,-7.677,-7.6768,-7.6767,0,0,-7.6111,-7.6158,-7.6285,-7.6334,-7.6406,-7.642,-7.645,-7.6513,-7.6531,-7.6671,-7.6631,-7.6718,-7.6874,-7.6923,-7.6968,-7.7187,-7.7152,-7.7215,-7.733,-7.7421,-7.7446,-7.7468,-7.7546,-7.7574,-7.7232,-7.7233,-7.7233,0,-7.6203,-7.6356,-7.6352,-7.6467,-7.6521,-7.6477,-7.6604,-7.6651,-7.6747,-7.6784,-7.6735,-7.693,-7.6971,-7.7142,-7.7196,-7.7234,-7.7267,-7.7208,-7.7443,-7.7466,-7.7486,-7.756,-7.759,-7.724,-7.7239,-7.7238,-7.7238,0,-7.6465,-7.6571,-7.6664,-7.6761,-7.6825,-7.6945,-7.6958,-7.7023,-7.701,-7.7028,-7.717,-7.7219,-7.7313,-7.7353,-7.7341,-7.7522,-7.7493,-7.7444,-7.7355,-7.7524,-7.7593,-7.7622,-7.725,-7.7248,-7.7246,-7.7244,0,0,-7.6726,-7.6819,-7.6854,-7.6897,-7.6973,-7.7054,-7.7171,-7.7265,-7.7321,-7.7388,-7.7485,-7.7618,-7.7573,-7.7624,-7.7617,-7.7697,-7.7867,-7.7638,-7.7639,-7.7679,-7.807,-7.8107,-7.814,-7.7844,-7.7849,-7.7854,-7.8064,0,-7.6932,-7.714,-7.714,-7.7331,-7.7428,-7.7388,-7.7489,-7.7546,-7.7566,-7.7649,-7.7669,-7.7764,-7.7697,-7.7728,-7.7806,-7.783,-7.7946,-7.7815,-7.7933,-7.7937,-7.7918,-7.8176,-7.8216,-7.8412,-7.8091,-7.8096,-7.8099,0,-7.7202,-7.728,-7.7481,-7.7544,-7.7584,-7.7676,-7.7762,-7.7843,-7.7906,-7.7914,-7.7972,-7.7952,-7.8069,-7.7976,-7.8136,-7.8047,-7.8095,-7.8114,-7.8121,-7.8132,-7.8029,-7.8194,-7.8474,-7.8504,-7.8142,-7.8138,-7.8135,0,-7.7372,-7.7527,-7.7668,-7.7706,-7.7782,-7.7847,-7.7881,-7.7939,-7.7995,-7.807,-7.8106,-7.8192,-7.8239,-7.8305,-7.8308,-7.8241,-7.8469,-7.8377,-7.8478,-7.8478,-7.8529,-7.8526,-7.8821,-7.8559,-7.8559,-7.8558,-7.8558,0,-7.7603,-7.7727,-7.7745,-7.7832,-7.7969,-7.7967,-7.8102,-7.813,-7.8182,-7.8271,-7.824,-7.8324,-7.8323,-7.8408,-7.8411,-7.8542,-7.8563,-7.8572,-7.8572,-7.8576,-7.8575,-7.8607,-7.8593,-7.8566,-7.8564,-7.8563,-7.8561,0,-7.7816,-7.7834,-7.7984,-7.8044,-7.8062,-7.8161,-7.8211,-7.8292,-7.8309,-7.8423,-7.8449,-7.8475,-7.8573,-7.8583,-7.8696,-7.8698,-7.8857,-7.8841,-7.8837,-7.8834,-7.8935,-7.8925,-7.9261,-7.9305,-7.9015,-7.9018,-7.902,0,-7.7963,-7.8058,-7.8129,-7.8188,-7.8227,-7.8322,-7.838,-7.838,-7.8441,-7.852,-7.8591,-7.8687,-7.8764,-7.8922,-7.8949,-7.9036,-7.9022,-7.9134,-7.9035,-7.9036,-7.9024,-7.9018,-7.9027,-7.9153,-7.9156,-7.9159,-7.9161,0,-7.8221,-7.8225,-7.8311,-7.8401,-7.8472,-7.8542,-7.8607,-7.8656,-7.8664,-7.8734,-7.8836,-7.8895,-7.9012,-7.9107,-7.9192,-7.9224,-7.9194,-7.9192,-7.922,-7.9225,-7.9219,-7.9224,-7.8889,-7.9184,-7.9182,-7.918,-7.9179,-7.9178,-7.8406,-7.8489,-7.8552,-7.8649,-7.8698,-7.876,-7.8839,-7.8867,-7.8952,-7.9049,-7.9043,-7.9155,-7.9213,-7.9325,-7.9363,-7.9449,-7.9411,-7.9452,-7.9462,-7.9472,-7.9483,-7.9205,-7.9464,-7.9464,-7.9463,-7.9462,-7.9462,0,-7.8663,-7.8701,-7.8791,-7.8884,-7.896,-7.8927,-7.8997,-7.9062,-7.9162,-7.922,-7.9297,-7.9412,-7.9504,-7.9539,-7.9628,-7.969,-7.9678,-7.9713,-7.9708,-7.9716,-7.9512,-7.9479,-7.9721,-7.9721,-7.9721,-7.9721,-7.9721,-7.9721,-7.8805,-7.8944,-7.8955,-7.9116,-7.9153,-7.9265,-7.9308,-7.9364,-7.941,-7.9542,-7.9619,-7.9642,-7.969,-7.9782,-7.9864,-7.9872,-7.9906,-7.9947,-7.9949,-7.9757,-7.9731,-7.9706,-7.9675,-7.9955,-7.9955,-8.0146,-8.0148,-8.0149]}]]